Theta_e
322 323 323 324 325 326 326 326 326 327 329 330 331 331 331 331 332 332 332 332 332 332 332 331 331 331 331 331 331 331 330 321 320 316 314 316 323 330 332 337 334 334 331 322 319 318 314 315 315 319 320 315 317 315 316 317 313 312 304 301 298 300 300 300 299 300 303 300 300 301 303 305 304 306 308 310 309 308 310 309 318 316 316 319 328 331 331 331
322 322 323 323 324 325 325 326 326 327 328 329 330 331 331 331 331 331 332 332 332 332 332 332 331 330 330 331 331 332 326 321 315 315 314 324 330 331 336 336 335 334 333 320 317 316 315 315 314 317 314 312 321 314 314 312 312 310 303 301 298 303 300 302 301 301 300 299 302 302 302 303 304 306 308 305 304 305 306 308 314 313 316 316 324 329 330 330
322 322 322 323 323 324 325 326 326 327 327 328 329 329 330 330 330 330 331 331 331 332 332 331 331 330 330 330 330 330 323 317 315 311 317 329 335 332 336 335 334 333 324 319 320 319 317 317 316 315 314 310 312 311 315 309 308 305 303 299 300 303 301 303 302 301 302 303 302 302 302 302 304 305 309 305 302 305 303 304 307 311 312 313 321 327 328 328
321 321 322 322 323 323 324 325 325 326 327 328 328 329 329 329 330 330 331 331 331 331 331 331 330 329 329 329 330 329 321 314 308 314 321 331 334 335 336 335 334 331 326 322 322 320 321 322 318 316 312 309 311 312 305 308 305 309 303 300 302 302 301 301 303 302 302 303 303 303 303 302 303 304 305 304 301 301 303 307 307 309 312 314 321 326 327 327
320 321 321 322 322 322 323 324 325 326 327 327 328 328 328 329 329 329 330 331 331 331 331 331 330 329 328 329 328 328 315 304 308 318 323 333 335 336 338 335 333 327 326 324 322 321 319 318 316 315 314 307 310 307 305 307 308 310 304 303 304 304 301 303 303 305 302 302 304 303 300 300 303 303 301 301 298 298 303 306 306 306 313 315 318 326 326 326
319 320 321 321 322 322 322 323 324 325 326 327 327 327 328 329 329 329 330 331 331 331 331 330 330 329 328 328 328 324 311 294 317 318 332 332 334 336 335 335 332 327 323 320 318 319 317 316 315 310 309 309 306 303 306 306 309 300 305 305 303 303 301 304 305 305 303 305 302 301 303 304 302 301 303 302 301 304 307 306 307 308 316 318 319 327 324 324
319 319 320 321 322 322 322 323 323 325 326 326 326 327 328 329 329 329 329 330 330 330 331 330 329 329 328 327 325 321 310 311 323 327 333 333 334 334 334 334 330 325 323 317 316 316 316 314 313 310 309 307 308 306 307 305 309 304 299 303 303 304 303 305 304 306 306 305 304 305 306 302 302 298 304 302 304 305 308 307 308 310 317 320 318 326 324 324
318 319 319 320 320 321 322 322 323 324 325 326 326 327 328 328 328 328 329 329 330 330 330 330 329 328 327 323 316 311 312 308 320 328 331 332 334 333 329 327 324 322 319 315 315 315 316 313 310 313 308 305 307 306 307 305 307 302 302 301 302 303 306 306 305 306 308 307 307 306 303 305 305 301 301 300 303 305 306 306 307 310 316 320 318 322 324 324
318 319 319 319 319 320 321 321 322 323 325 325 325 326 327 328 328 328 328 329 329 329 330 329 328 328 327 321 314 307 306 318 325 327 330 328 330 329 325 322 323 320 318 317 316 317 317 313 313 313 307 308 313 306 305 304 299 305 305 302 302 303 307 307 307 307 308 309 307 305 304 306 303 303 299 302 303 305 306 306 307 309 313 319 318 321 323 323
318 318 319 319 319 319 320 320 321 322 324 325 325 326 326 327 328 328 328 329 329 329 330 329 328 327 323 316 313 303 314 324 329 329 327 328 328 325 323 324 322 321 317 316 316 316 315 315 313 315 315 312 312 309 308 306 303 308 307 305 305 306 307 308 306 307 308 308 308 305 304 305 302 302 297 305 306 305 308 307 307 307 311 317 318 320 322 322
317 318 318 319 319 319 320 320 321 322 323 324 325 326 326 326 327 327 328 328 328 328 329 327 327 324 317 317 307 303 323 323 327 327 328 329 325 321 319 322 323 319 316 318 316 317 322 319 322 320 316 308 313 308 309 308 309 307 305 306 306 306 307 308 308 307 307 307 308 306 303 304 306 301 299 303 307 309 306 305 307 307 310 314 316 318 319 321
317 317 317 318 318 319 320 320 321 322 323 324 324 325 325 325 326 326 326 327 328 328 328 326 326 323 319 313 308 311 324 324 329 328 329 328 322 320 321 321 320 319 320 317 316 318 319 324 320 316 307 316 306 310 309 308 308 307 307 301 304 306 304 307 306 308 309 307 307 306 303 302 303 302 305 304 305 304 304 304 307 307 309 312 313 317 317 319
316 317 317 317 318 319 320 320 321 321 322 323 324 324 324 325 325 326 326 326 327 328 328 327 325 322 315 305 311 323 325 328 328 328 328 326 324 324 321 322 323 322 320 319 317 319 322 325 326 315 318 314 309 304 309 311 307 307 306 303 302 302 301 306 309 309 305 306 307 306 294 298 303 306 308 306 304 303 303 302 306 308 308 310 313 316 318 319
316 316 316 317 317 318 319 320 320 321 322 322 323 323 323 324 325 325 326 325 327 327 327 327 324 319 313 306 316 322 326 328 327 325 323 324 319 319 321 323 323 322 322 319 321 321 323 323 323 320 318 311 307 311 308 308 308 301 304 304 298 297 297 307 307 308 305 304 305 307 294 298 303 306 304 305 306 303 301 301 305 307 307 308 313 315 317 319
316 316 316 316 317 317 318 319 319 321 321 322 323 323 323 323 324 325 325 325 326 327 327 327 323 315 308 310 318 325 328 324 322 323 324 319 316 315 316 321 320 320 321 321 323 329 325 322 318 313 310 311 312 307 302 303 303 303 298 294 298 296 299 305 309 306 301 299 304 303 294 298 302 306 304 305 306 304 301 301 304 306 307 308 313 315 317 318
315 316 316 317 317 317 317 317 318 320 321 321 322 321 321 322 323 324 326 325 326 326 326 319 317 315 307 304 313 325 323 317 319 325 325 321 318 314 316 318 320 319 320 320 325 326 322 318 314 311 307 309 306 304 301 300 301 302 298 296 295 297 297 300 301 303 304 304 299 301 295 297 298 304 299 302 304 304 303 302 301 306 308 309 311 315 316 317
316 316 316 316 317 317 317 318 318 319 320 320 321 321 321 321 323 324 326 325 324 326 322 314 318 317 301 313 320 312 311 316 325 324 323 321 320 317 316 317 315 314 319 323 324 322 320 313 312 311 314 305 305 304 297 295 295 297 300 296 299 296 298 297 297 300 304 301 295 298 296 297 300 301 298 299 301 301 299 300 301 302 306 308 310 313 315 316
316 316 316 316 316 316 317 317 318 319 319 319 319 320 320 322 324 322 320 319 321 319 320 318 317 309 304 312 303 307 315 316 320 322 322 321 321 318 317 315 315 315 318 316 318 314 315 310 309 303 304 304 304 301 295 291 295 296 297 296 297 299 300 298 294 296 298 299 298 298 295 296 299 302 304 304 300 300 300 300 300 300 304 307 308 310 313 314
315 315 315 316 316 316 316 317 318 318 319 319 321 322 322 323 322 320 314 312 308 302 300 304 305 295 292 305 314 314 314 319 323 321 318 319 320 322 319 318 316 314 310 308 309 311 312 307 308 302 297 300 300 301 298 300 301 300 300 299 299 296 298 298 298 295 299 296 295 296 295 298 299 299 301 303 304 301 300 300 300 300 299 305 308 309 311 313
315 315 315 316 316 316 316 317 318 318 319 318 316 314 313 305 304 302 311 309 304 304 307 308 309 308 306 309 311 317 320 321 315 317 318 320 318 317 316 317 314 314 309 303 306 308 310 300 297 297 300 301 303 304 303 304 304 303 302 301 299 300 301 304 300 297 298 297 296 298 299 299 300 301 302 303 302 301 301 300 300 300 300 300 306 309 309 311
315 315 315 315 315 315 316 317 317 318 318 315 314 308 298 299 296 294 302 304 307 308 305 306 309 305 304 307 307 313 309 311 316 315 317 322 319 314 310 312 308 304 306 307 305 310 308 299 298 301 303 304 304 305 305 303 303 302 303 300 299 300 299 304 301 298 299 298 297 300 300 300 301 304 304 304 303 300 300 300 300 300 300 301 302 305 308 309
314 315 315 315 314 315 317 317 317 318 318 314 312 306 308 307 310 316 307 297 305 307 308 307 307 306 310 307 312 309 314 308 310 314 319 319 314 308 308 307 304 300 305 306 305 302 299 297 301 304 306 306 305 305 304 302 301 302 301 300 299 299 303 303 299 299 299 298 295 298 297 299 301 303 305 305 304 303 302 301 301 301 300 301 303 303 306 308
314 314 315 315 314 315 316 317 317 317 314 306 304 307 306 313 317 318 314 303 300 307 305 305 303 303 305 310 310 312 302 305 304 311 313 317 311 310 308 305 303 303 304 304 298 297 294 298 303 307 307 305 304 304 303 302 302 300 300 298 297 301 299 296 297 299 298 297 294 295 295 297 300 301 303 305 305 304 303 302 302 302 301 301 302 304 305 308
313 314 314 314 315 315 315 315 315 313 309 309 309 309 313 315 314 313 308 297 294 302 304 305 305 304 303 303 310 306 302 307 309 307 317 315 307 311 308 306 303 303 300 303 302 299 297 302 307 306 306 304 302 303 302 300 298 301 301 300 299 300 301 299 295 297 297 297 297 295 292 293 296 296 298 302 305 305 305 303 302 302 302 302 303 303 306 307
314 313 313 314 313 315 314 315 309 308 311 310 308 312 316 315 314 313 302 296 296 294 308 306 305 305 306 315 312 303 302 306 311 313 315 315 310 309 306 310 305 300 301 303 303 301 300 305 307 304 304 304 303 301 301 301 297 299 302 302 302 303 301 301 295 295 293 292 294 291 283 286 294 295 296 300 301 301 304 303 302 302 301 301 301 302 304 307
313 313 313 313 313 312 313 305 304 309 309 305 310 313 314 314 313 312 303 287 284 291 300 292 305 298 312 303 306 304 305 296 311 313 315 317 317 311 309 305 306 299 302 302 301 301 302 306 305 303 303 302 302 301 302 303 298 297 299 305 304 303 302 301 300 296 286 284 291 294 285 283 293 293 296 298 299 300 302 302 303 304 303 301 302 302 303 305
312 313 312 311 312 313 305 300 311 309 301 304 311 314 315 316 316 307 295 284 281 293 287 299 299 299 306 304 304 305 288 293 312 315 313 317 311 318 304 302 305 306 307 306 301 297 303 303 303 304 302 301 300 299 303 303 299 296 304 304 303 302 301 300 300 296 292 296 297 292 291 284 285 292 296 298 298 299 300 302 303 305 305 303 302 302 302 304
312 312 312 313 313 313 307 309 306 304 304 309 315 313 313 312 311 306 292 275 274 296 290 295 299 311 304 306 305 298 297 309 300 307 315 316 315 309 306 302 301 302 305 303 290 303 303 300 302 301 301 300 298 302 304 305 300 299 302 304 301 301 301 300 298 295 293 290 286 290 293 283 283 290 295 297 295 297 299 301 303 305 306 306 303 303 303 304
312 311 312 313 312 313 312 308 306 305 311 313 313 313 312 310 307 294 283 274 292 289 310 293 315 303 304 304 300 300 299 306 300 307 313 315 315 308 302 304 304 304 305 303 296 301 304 304 304 304 301 298 302 304 305 304 299 302 304 304 303 303 302 300 296 295 290 288 286 288 293 284 286 291 292 293 294 295 297 300 302 304 307 306 303 303 303 304
311 311 311 312 311 310 309 310 307 310 313 314 312 312 311 306 296 285 279 272 295 282 296 298 298 294 302 296 296 299 296 300 305 308 310 306 308 310 311 312 305 303 301 304 301 302 305 308 308 305 302 304 304 304 305 305 305 304 303 301 299 299 295 293 293 289 288 285 287 291 293 291 284 290 292 291 293 296 298 300 301 302 302 303 304 303 304 304
311 311 310 310 305 306 306 301 306 312 313 312 310 309 303 296 285 280 274 282 293 291 299 297 292 302 296 293 291 298 297 299 302 304 301 306 302 306 306 303 308 301 299 298 294 300 303 305 303 304 308 308 307 302 306 306 304 303 298 295 294 290 291 289 287 289 285 284 286 290 291 293 283 285 294 298 298 298 298 298 300 301 303 303 302 303 304 304
310 309 311 310 311 308 303 301 308 312 310 310 307 300 295 281 286 278 277 295 281 288 289 289 296 296 295 297 294 295 293 297 302 301 299 299 297 297 300 294 298 290 289 292 289 298 297 299 303 304 305 307 303 299 297 302 301 300 298 294 289 284 284 283 285 281 283 283 283 284 290 286 288 292 296 297 297 298 298 299 300 301 302 303 303 302 303 303
311 310 311 310 310 307 309 311 312 311 309 308 302 298 288 281 273 282 282 284 281 293 289 297 293 296 295 294 291 295 298 292 301 300 302 300 297 298 302 301 301 297 287 293 291 292 293 301 301 301 301 306 304 295 292 294 297 297 295 291 287 283 282 281 283 285 284 286 284 285 289 284 289 292 298 299 301 302 301 299 299 299 300 301 303 305 303 302
310 310 306 308 310 311 311 313 312 311 307 304 296 290 286 278 277 289 283 285 284 293 297 293 295 295 295 289 291 296 291 297 298 298 300 297 297 294 298 301 302 298 296 294 290 291 286 287 295 299 294 305 303 300 298 297 297 296 299 295 289 287 283 280 283 280 282 281 282 288 285 282 282 288 292 293 295 297 299 300 299 300 300 300 301 301 299 298
310 308 308 307 308 311 312 312 312 311 307 301 291 285 278 278 284 280 282 284 288 295 292 297 292 292 290 292 294 296 296 290 298 298 296 295 292 294 295 297 301 301 296 290 291 291 291 290 298 302 301 305 301 302 302 298 295 298 298 299 292 287 290 283 284 283 283 280 278 281 283 285 290 294 295 295 294 294 293 294 295 296 297 297 298 299 299 299
307 305 307 304 306 309 311 312 312 309 303 297 287 281 279 283 279 286 285 292 290 290 292 295 293 288 287 288 293 293 299 292 294 296 295 295 296 294 299 300 299 301 295 290 293 288 291 287 298 299 302 303 303 303 301 302 287 293 296 290 293 296 293 286 283 285 285 284 281 283 283 288 294 296 298 298 297 296 294 293 293 295 296 295 297 298 297 298
302 304 299 303 305 309 309 310 309 307 300 293 285 279 285 282 290 292 294 290 291 292 292 284 286 286 285 285 287 291 293 296 293 294 289 296 293 296 297 300 304 302 301 298 292 298 290 289 295 297 295 302 306 305 301 303 301 295 289 294 298 299 297 290 284 283 281 279 281 284 283 282 284 283 294 296 296 297 293 294 295 294 294 295 297 298 298 299
300 300 301 301 305 308 309 308 307 302 298 288 282 286 292 284 294 293 295 296 294 293 289 287 287 291 286 286 285 289 293 289 289 293 287 294 288 301 298 299 304 302 303 304 296 295 296 285 289 290 297 296 301 302 299 300 300 297 294 302 294 285 287 288 287 281 280 280 281 281 284 283 286 288 289 291 293 295 296 295 294 294 294 295 295 296 298 299
300 298 293 301 307 308 308 307 303 296 293 285 283 283 287 291 295 295 296 297 296 292 288 288 284 287 290 287 287 290 292 285 292 289 287 291 287 298 299 302 299 304 304 303 298 297 297 287 286 291 293 296 297 296 287 292 297 299 301 297 300 294 289 287 288 286 284 280 279 281 284 284 290 291 292 293 294 295 294 294 294 294 294 295 295 299 299 299
295 292 290 302 306 308 308 306 298 292 289 282 284 284 292 289 293 297 297 297 292 292 289 288 289 286 289 289 289 285 291 291 290 289 290 293 292 302 299 304 301 302 303 304 299 300 292 293 284 288 293 295 288 292 291 293 289 291 293 291 293 290 292 291 290 287 283 281 280 279 278 283 290 296 296 296 297 297 295 296 296 295 295 296 296 297 299 299
299 291 291 303 306 308 307 300 291 287 286 290 291 286 286 288 293 294 297 297 293 296 293 291 290 286 288 288 288 292 289 290 291 289 290 292 293 289 301 302 303 300 303 302 299 299 289 291 285 286 287 288 291 296 297 296 295 294 293 291 293 290 285 286 284 292 289 285 281 280 280 286 293 296 298 297 298 296 297 297 298 298 294 295 298 298 298 299
292 284 289 302 306 307 299 289 288 291 288 285 284 289 285 295 291 292 294 295 293 292 295 293 294 291 289 290 291 290 288 287 290 290 291 290 296 296 300 305 304 304 300 296 295 300 296 291 288 284 287 290 293 293 293 296 298 296 296 292 296 294 291 288 284 286 288 288 288 283 281 283 294 294 295 296 296 295 295 297 297 297 296 297 299 298 298 298
292 288 299 303 305 303 294 286 289 287 285 288 294 293 295 293 292 293 291 293 291 292 287 291 290 290 292 291 289 288 291 286 290 288 292 293 295 298 304 304 305 303 302 298 300 299 295 288 286 285 288 290 292 294 295 295 297 294 294 295 295 292 293 291 290 288 286 286 284 284 281 285 293 293 294 293 293 293 294 295 295 294 295 296 296 297 296 298
291 290 293 303 305 302 291 281 282 284 286 290 291 290 295 293 292 289 290 291 290 289 287 287 291 294 291 296 293 287 292 285 290 291 289 295 293 302 302 304 305 301 300 298 295 298 291 289 288 283 282 284 286 290 291 293 294 292 291 294 295 296 295 290 286 287 284 286 286 284 280 285 292 293 289 290 292 293 293 294 293 294 296 296 294 295 296 296
292 294 294 296 302 299 287 290 286 284 285 286 285 284 288 291 293 292 291 290 292 291 289 288 290 294 292 296 293 294 293 291 286 292 292 290 295 297 299 302 305 302 304 303 300 302 292 290 288 282 278 277 276 278 281 285 288 292 293 293 294 294 293 291 287 285 283 284 287 283 284 289 291 291 291 291 291 292 292 292 293 294 295 295 296 297 297 298
288 281 289 291 295 294 293 294 291 288 285 285 284 284 287 286 291 294 293 292 293 293 290 292 292 294 291 291 289 289 290 293 290 286 290 287 289 292 298 301 303 303 301 299 299 300 288 293 291 290 287 285 286 288 292 294 290 287 289 292 292 294 295 293 290 287 284 285 284 287 288 288 291 292 290 290 290 292 294 292 292 293 294 295 295 296 297 297
292 285 285 283 290 290 289 291 289 290 285 288 282 284 282 285 289 290 295 288 292 292 290 292 291 288 288 288 287 288 290 290 291 288 287 288 291 294 298 300 303 302 298 298 299 295 287 288 291 292 291 292 293 292 294 294 290 291 290 290 293 292 292 290 288 287 291 284 282 288 290 288 290 294 292 291 292 293 294 293 292 293 294 295 296 296 297 295
284 287 291 291 285 282 284 285 289 288 291 289 286 288 283 283 286 283 290 292 293 293 287 290 291 289 290 288 290 285 288 287 288 286 289 288 289 292 294 298 299 299 298 298 300 296 290 287 291 292 291 292 293 293 295 294 293 292 292 292 291 292 292 289 290 293 292 287 285 291 292 290 292 294 293 294 294 295 295 294 294 294 295 295 294 293 294 295
289 290 291 293 284 288 287 289 289 288 288 288 287 288 285 284 283 287 287 287 290 289 290 282 287 289 290 291 289 286 288 284 283 288 286 286 287 289 288 293 297 296 298 297 297 295 293 288 291 292 290 291 291 292 294 293 293 292 292 292 293 293 292 292 292 294 293 291 293 293 293 292 295 294 297 297 296 296 295 294 293 293 294 293 294 294 295 295
284 286 286 291 290 288 289 289 289 288 285 289 284 286 287 286 284 287 290 287 283 287 291 286 288 289 290 290 289 285 288 291 291 285 289 289 285 290 291 293 291 295 297 294 294 295 294 287 293 290 288 288 291 292 292 293 292 289 291 293 293 293 293 293 293 293 293 293 294 293 292 291 296 297 297 299 299 296 292 292 292 293 294 295 295 295 294 295
292 293 292 288 284 286 288 288 287 286 284 286 284 286 287 287 286 288 288 291 288 286 289 286 288 290 291 290 289 288 290 291 292 294 294 292 288 293 292 292 297 291 293 291 292 292 293 287 291 290 286 286 288 289 290 291 290 289 289 291 291 291 289 291 290 293 291 290 291 291 289 290 296 298 298 298 299 294 292 292 291 292 294 295 294 294 294 295
293 294 294 290 282 288 285 287 287 284 282 286 287 287 286 287 289 290 285 291 291 291 291 290 289 289 289 289 288 289 292 292 293 295 299 297 298 296 297 296 297 295 291 291 294 291 291 289 288 288 286 285 287 289 289 288 287 285 286 290 291 292 293 294 294 295 294 294 290 287 289 296 295 297 298 298 298 298 295 294 293 294 295 294 294 294 295 296
Wind_Speed
18 17 17 17 16 15 15 15 14 14 13 13 12 12 12 12 12 12 13 13 13 11 12 13 12 10 8 9 9 8 9 6 6 8 9 11 7 6 2 8 13 9 5 5 8 6 7 8 7 5 1 4 2 1 1 1 1 1 1 1 4 3 5 3 3 2 1 3 3 4 3 3 3 2 2 0 2 3 4 2 5 3 5 5 6 10 11 11
18 17 17 18 18 17 15 15 14 14 13 13 13 13 12 13 12 13 14 13 12 12 13 13 13 10 9 9 10 10 8 7 9 11 17 8 10 7 5 7 11 11 5 8 13 12 9 7 8 8 6 1 2 1 2 1 2 4 3 2 5 1 1 2 3 6 2 2 3 4 3 2 3 2 2 1 3 5 3 3 5 4 6 4 4 11 10 10
18 18 17 18 18 18 17 15 15 14 14 13 13 13 13 12 13 13 13 14 13 13 13 13 11 12 10 8 10 10 7 7 9 16 16 13 7 9 8 8 12 11 9 10 11 10 10 8 9 8 5 3 1 1 1 1 3 2 3 3 4 3 3 4 3 3 3 1 3 3 3 1 3 1 2 1 4 3 6 4 5 6 8 7 6 11 10 10
18 18 18 18 18 17 17 17 16 15 14 14 14 13 13 13 14 14 13 13 13 14 14 15 13 12 10 11 11 9 5 5 14 12 11 16 14 12 12 14 13 12 5 8 8 9 6 6 7 9 7 4 4 3 4 2 3 2 2 1 1 5 4 3 3 3 3 3 2 1 0 1 3 3 1 1 2 5 5 3 5 10 11 11 10 11 11 10
19 18 18 18 18 18 18 18 17 16 15 15 14 13 12 13 14 14 13 14 14 14 14 15 15 13 12 11 12 5 7 3 7 13 13 19 17 15 12 13 12 7 6 12 10 10 12 10 6 5 3 4 4 5 7 3 1 5 5 6 2 4 4 3 5 2 1 4 0 1 3 4 4 3 3 4 4 2 2 1 6 3 9 13 12 12 10 10
21 19 18 18 18 18 18 18 18 17 16 15 15 14 13 13 13 14 14 14 15 14 15 16 16 15 13 13 10 8 9 10 4 13 18 22 19 16 13 10 12 6 10 9 9 7 8 8 5 6 5 5 9 8 6 5 3 5 2 4 6 5 3 2 5 1 3 2 3 2 3 3 2 3 3 5 5 2 4 4 4 4 9 14 13 13 10 11
21 20 19 18 18 18 18 17 18 18 16 16 15 14 15 14 13 14 14 15 14 14 15 17 17 16 15 14 9 11 14 6 3 6 26 23 20 17 14 10 8 5 7 10 11 6 7 9 8 7 5 6 9 6 4 5 2 4 6 5 4 6 3 3 4 1 0 4 2 2 2 3 1 4 1 2 2 5 1 2 4 2 6 12 12 13 13 13
20 21 20 18 18 18 18 18 17 18 17 16 16 15 16 16 14 14 14 15 14 15 15 16 16 15 15 8 7 8 13 14 6 7 21 24 19 17 17 9 11 8 12 14 10 9 8 10 12 7 7 7 7 7 6 7 2 9 3 7 4 0 1 1 1 1 0 2 1 1 4 4 4 2 1 3 5 6 3 4 4 2 6 9 12 11 11 11
20 20 20 19 19 19 19 19 18 18 17 17 17 16 16 16 15 14 15 15 15 15 16 15 16 16 16 7 8 9 17 13 3 7 14 16 17 17 16 9 12 11 10 12 12 8 6 7 8 7 4 7 2 11 10 7 4 5 5 4 4 2 1 2 4 3 2 1 3 2 4 5 1 1 4 10 12 8 3 4 4 4 4 8 10 10 11 10
20 20 20 20 20 19 19 19 19 19 19 18 17 17 16 16 16 15 15 16 16 16 17 17 17 18 14 6 6 12 11 10 5 10 13 14 16 17 15 12 14 12 9 11 9 10 9 5 9 6 7 0 5 1 6 8 1 8 1 2 1 1 1 2 4 3 2 3 3 6 5 5 1 1 4 3 4 2 6 5 4 4 5 6 6 8 10 10
20 21 21 21 21 21 20 20 19 20 19 19 16 16 16 15 16 15 15 16 16 15 15 16 19 18 10 8 9 17 7 16 6 10 14 15 17 17 15 15 14 12 15 7 11 10 5 7 4 4 3 4 3 2 4 2 6 6 4 1 3 4 5 5 6 5 3 4 1 3 5 4 4 3 7 3 1 2 4 4 5 4 5 6 6 8 7 8
20 20 21 21 22 22 21 20 20 19 20 20 17 16 16 15 15 15 15 16 16 16 15 15 18 11 9 12 14 7 3 5 9 9 12 14 15 17 17 17 17 14 12 9 11 9 8 3 10 7 2 4 7 6 5 4 5 6 7 4 5 5 8 7 8 6 3 4 2 3 7 9 6 8 8 10 7 7 6 5 6 6 6 6 6 6 6 7
20 21 21 20 21 22 22 21 19 19 20 19 18 17 16 15 14 14 15 14 16 16 15 18 15 10 9 7 13 0 4 2 12 13 10 11 9 8 13 16 15 11 19 14 11 7 8 4 3 6 2 0 5 3 2 7 4 6 4 2 2 5 9 11 9 10 1 2 2 4 7 6 6 9 12 14 8 5 4 5 6 5 5 6 6 6 6 6
21 21 21 21 21 23 24 23 21 19 20 20 19 17 17 16 14 15 15 13 14 14 14 20 12 9 10 9 4 7 4 6 9 14 15 13 13 9 8 9 12 9 10 11 6 6 6 4 4 2 3 0 3 2 6 4 4 5 2 3 5 4 6 7 10 10 14 2 4 4 8 9 7 7 9 5 7 5 4 4 5 5 6 5 7 6 7 7
22 21 22 22 23 23 24 24 25 21 20 20 19 17 17 17 16 15 14 12 12 12 12 15 9 7 7 3 4 4 3 5 8 15 14 17 15 11 13 11 14 13 9 8 4 1 6 6 7 3 1 2 5 4 5 3 4 5 5 4 3 6 2 3 7 8 9 2 5 6 9 12 7 4 0 2 2 4 4 4 5 5 5 5 6 7 7 7
22 22 22 23 24 24 25 25 26 22 22 21 20 17 16 16 17 16 16 12 13 15 9 10 8 8 3 6 4 8 1 10 11 15 13 17 16 16 17 12 11 9 8 5 6 3 4 4 1 1 3 1 6 4 3 3 3 5 7 2 6 6 5 3 3 4 9 2 6 11 5 2 3 8 4 3 3 2 2 4 3 8 7 6 5 6 6 6
23 23 22 24 25 25 26 26 24 23 22 20 18 18 16 16 16 17 16 13 8 7 9 4 6 6 6 0 6 15 8 7 5 12 11 13 16 15 18 14 12 15 10 4 4 6 3 8 2 0 1 3 6 6 6 7 5 5 4 4 2 7 5 6 3 3 3 4 4 8 9 7 5 2 4 4 5 5 4 5 5 4 7 6 5 5 6 7
24 24 24 24 25 26 27 26 25 24 22 20 19 16 15 17 18 16 13 6 6 2 2 3 1 5 11 4 9 13 12 10 9 12 14 12 15 17 18 16 14 15 13 8 4 9 4 5 4 6 3 5 9 8 11 12 9 6 7 5 5 5 8 7 5 2 3 4 7 5 10 12 9 9 10 7 5 5 6 5 5 5 5 7 6 5 6 7
25 25 25 25 26 28 27 25 23 23 23 22 21 18 15 16 11 10 12 10 10 6 9 11 11 13 0 10 2 13 13 12 10 14 14 13 11 11 12 11 16 17 12 11 5 10 5 3 2 7 11 12 13 12 9 3 10 8 9 7 5 5 6 9 3 3 6 5 7 8 9 10 9 9 7 8 9 7 7 6 6 6 5 5 6 6 6 6
26 24 24 25 27 28 28 26 25 24 24 17 15 13 10 11 12 9 13 15 15 12 5 12 14 2 3 5 5 7 10 14 12 10 12 14 16 15 10 11 12 14 15 13 10 12 7 9 12 15 13 12 10 11 9 4 8 5 6 6 8 7 7 7 6 7 7 3 7 8 9 10 9 6 8 9 7 9 10 10 8 7 7 6 7 8 8 8
26 26 27 28 29 27 27 27 27 26 28 17 17 14 13 15 16 15 16 12 15 16 7 2 12 9 1 1 6 12 16 14 12 16 18 12 12 18 11 10 12 14 13 16 13 8 10 11 14 14 10 13 14 11 9 8 5 3 1 3 6 8 8 6 5 5 3 3 2 6 8 12 12 11 11 11 12 11 9 10 11 9 8 8 7 9 10 9
27 26 25 27 28 28 28 27 26 26 27 14 18 15 8 19 6 0 17 12 18 18 11 11 5 5 3 2 1 5 5 13 15 16 10 16 12 16 11 12 14 15 13 11 9 11 11 17 16 15 10 10 11 11 10 10 10 5 4 5 6 8 8 2 10 8 5 3 7 7 10 12 12 11 10 11 12 11 10 9 10 10 9 9 10 9 8 7
25 25 27 26 26 25 28 27 27 28 16 18 19 20 17 11 3 1 3 8 14 16 16 10 5 4 3 2 2 3 3 17 15 15 16 11 15 14 16 13 14 14 15 15 14 13 14 15 13 13 13 13 12 12 11 9 9 7 5 6 7 4 5 5 6 6 4 3 2 3 7 9 10 10 12 11 12 13 13 12 9 10 11 12 12 10 10 10
27 27 27 29 26 27 28 27 29 23 18 18 18 18 10 12 9 11 9 6 5 11 8 6 7 4 5 5 2 4 1 6 15 20 12 15 17 14 15 18 20 16 16 17 17 17 18 9 15 14 15 14 15 16 14 10 10 6 6 6 6 5 4 5 4 2 3 4 5 9 10 10 11 13 11 13 15 13 13 12 12 9 9 8 7 8 11 13
25 26 30 25 27 30 29 25 16 14 16 19 20 15 9 12 13 13 8 5 3 1 2 2 4 4 4 3 4 2 3 8 11 15 15 17 19 15 13 10 12 16 19 21 17 13 11 6 17 17 16 16 15 15 16 12 9 7 8 8 6 6 6 7 9 4 1 4 8 8 4 4 6 13 12 7 6 13 13 14 14 13 9 9 9 9 8 10
26 27 24 23 22 32 32 15 13 15 18 18 13 10 10 12 13 10 7 2 5 4 6 14 7 11 7 6 4 4 4 7 8 11 11 14 13 16 12 14 11 18 19 21 16 8 11 10 16 15 15 16 15 13 15 14 9 8 7 9 10 8 6 4 2 4 2 2 3 1 5 6 5 9 4 3 4 10 10 13 14 14 13 11 12 11 9 9
26 25 26 26 25 29 19 10 12 16 16 14 12 12 9 4 8 9 5 2 6 9 7 4 11 3 9 8 8 4 5 5 6 7 12 13 18 2 14 11 10 5 11 7 4 8 9 14 16 15 16 15 13 13 12 16 9 6 7 12 11 7 4 2 3 3 4 3 1 4 2 7 10 10 5 9 12 9 7 11 15 15 15 14 12 12 11 10
28 29 26 29 26 28 3 7 16 18 14 12 12 13 8 7 10 5 5 5 7 11 7 9 5 2 7 7 12 8 6 2 11 13 17 13 6 8 12 19 17 18 16 13 18 8 21 17 18 19 16 14 15 12 9 13 7 2 5 13 9 8 5 4 3 2 2 5 5 3 3 3 6 2 6 9 10 9 12 9 10 16 17 16 13 13 13 13
26 21 22 25 27 19 3 6 15 13 9 15 9 10 9 12 8 9 5 5 2 5 4 9 3 4 7 14 12 11 12 3 8 8 12 8 5 2 12 17 13 17 16 19 16 8 8 18 20 19 15 13 8 7 7 12 10 3 4 4 3 2 1 0 0 1 1 1 11 4 4 5 12 4 4 3 6 8 7 10 9 8 15 16 14 13 14 14
27 24 23 20 14 5 2 6 7 10 13 12 14 10 11 16 9 7 10 9 3 4 8 4 12 11 13 13 8 9 14 10 4 5 12 8 11 3 5 10 13 16 14 12 3 2 5 9 11 10 12 9 10 6 6 12 2 7 6 6 5 1 3 3 4 3 2 7 11 4 5 4 10 3 8 6 5 7 8 6 5 6 5 10 12 13 13 13
24 25 20 19 7 3 8 8 8 10 13 13 15 13 10 6 7 8 10 2 6 2 7 12 12 18 19 19 12 10 13 13 7 10 10 4 10 5 6 6 3 6 8 10 3 5 8 8 8 3 10 7 11 5 1 3 8 8 3 5 7 4 3 3 2 3 3 9 2 7 8 8 10 2 3 7 4 9 9 7 8 7 8 8 8 10 11 10
23 23 24 9 4 9 9 12 14 12 13 16 18 15 11 6 3 9 4 3 5 8 10 9 12 12 17 16 12 15 13 11 12 14 13 10 9 12 15 12 11 10 12 15 5 2 9 12 5 7 5 16 12 12 4 7 7 8 7 9 10 3 3 2 3 6 9 5 1 1 6 3 19 8 9 5 5 3 5 7 7 6 7 7 7 10 10 9
17 14 12 4 5 3 9 11 15 13 16 14 11 11 7 6 9 5 2 5 0 8 7 13 14 14 17 17 14 13 14 15 11 16 16 11 11 14 16 18 20 12 14 14 13 11 5 9 12 9 1 5 13 15 8 9 11 12 14 12 11 7 6 7 4 2 3 4 3 2 3 7 5 5 14 18 19 15 8 6 5 4 5 5 2 1 2 2
13 10 8 2 2 5 8 10 12 15 16 12 9 7 2 4 2 5 5 2 2 2 14 11 15 12 20 16 16 13 12 13 10 14 19 11 14 15 14 13 20 12 5 17 16 16 11 14 15 18 10 12 14 16 21 15 19 15 8 12 8 7 4 6 6 10 8 2 3 5 4 7 3 3 3 4 5 6 8 8 6 6 7 6 5 2 2 2
13 10 4 6 6 5 7 8 11 14 9 10 9 6 10 5 2 5 2 3 1 6 5 11 17 16 12 10 13 16 8 8 13 12 18 15 14 13 15 14 17 8 7 16 4 6 15 2 6 12 2 20 16 10 8 9 5 6 4 4 6 8 4 7 2 4 3 2 1 4 7 2 2 4 6 3 2 4 4 5 4 6 6 4 5 7 7 5
12 6 4 5 6 6 6 6 7 11 7 9 8 5 7 5 3 3 2 5 3 7 9 13 12 12 11 8 6 11 10 2 13 10 14 17 13 17 16 12 18 19 16 12 7 9 7 8 12 7 8 18 15 12 8 13 11 7 7 10 6 3 1 0 2 0 1 0 8 4 6 6 8 13 13 11 8 8 6 5 5 7 7 5 7 7 7 5
8 6 6 5 7 5 6 6 5 7 7 4 9 7 7 1 1 3 5 6 4 7 13 14 10 9 11 11 8 16 10 2 8 10 8 15 13 15 15 11 14 18 19 15 9 3 17 6 3 8 14 11 15 12 11 13 6 7 7 7 4 4 2 2 5 2 1 4 5 9 12 4 4 9 3 13 15 9 5 9 9 7 6 6 8 8 6 5
8 7 8 6 5 5 5 6 7 6 3 6 6 5 2 3 2 5 1 4 8 1 5 6 2 3 10 11 11 14 12 11 6 11 2 14 2 14 14 10 13 13 14 10 10 6 9 6 0 5 4 3 9 6 5 2 1 11 11 8 11 5 6 4 1 9 6 9 5 4 8 6 11 10 2 1 6 8 7 9 7 7 6 8 6 5 4 3
8 8 8 6 4 4 6 9 6 7 4 5 5 6 1 1 4 4 2 6 1 5 4 2 1 1 4 10 9 14 17 12 10 10 6 8 6 13 17 11 13 16 19 13 10 6 9 8 1 3 2 4 6 6 9 6 2 4 5 7 7 2 6 10 10 0 3 6 4 6 6 10 8 7 5 8 7 7 6 6 8 8 7 6 5 2 4 3
8 5 5 5 4 3 7 8 7 2 2 8 7 3 4 3 4 4 4 3 3 1 2 4 4 4 2 1 13 10 10 11 11 7 8 5 8 8 20 13 11 16 17 16 6 11 7 4 8 2 4 3 8 6 11 15 12 9 9 9 7 3 2 2 2 5 3 2 4 4 5 4 3 9 13 16 14 8 5 4 4 8 7 3 5 4 4 3
2 5 6 3 4 3 5 6 7 8 5 1 2 1 1 2 5 3 5 8 5 6 4 4 3 3 4 5 8 6 8 10 9 7 6 4 13 6 14 17 12 19 16 17 8 11 3 7 10 6 2 8 7 8 7 12 14 13 13 14 14 10 4 9 8 3 4 2 4 2 10 5 3 2 10 11 8 5 5 4 3 1 5 5 4 3 3 2
3 6 6 6 5 4 7 8 5 3 2 4 3 4 1 5 4 6 3 4 6 3 3 4 2 3 3 3 3 6 7 6 7 7 6 7 11 7 9 24 17 18 16 13 10 10 6 4 11 10 8 8 4 1 2 2 13 9 11 10 11 8 5 6 11 9 5 9 3 0 5 8 5 1 6 5 5 4 5 4 3 3 4 4 3 2 1 1
4 7 6 6 5 6 6 5 3 5 6 4 0 4 4 3 3 4 4 3 2 2 2 2 1 2 2 3 3 3 5 2 8 7 7 9 9 11 1 22 18 17 18 7 10 5 12 6 10 5 6 3 1 1 2 5 5 3 5 3 10 13 14 11 6 2 6 2 4 3 8 6 1 1 2 4 5 5 3 3 2 4 5 4 3 2 1 0
7 8 7 2 4 4 5 7 9 7 4 2 3 2 3 2 4 5 3 6 4 3 4 2 2 3 2 1 5 6 5 3 4 5 3 3 3 6 4 16 20 15 19 8 10 10 7 5 13 7 5 1 4 3 1 3 1 8 9 11 13 12 12 3 3 1 3 8 9 9 13 9 3 1 1 3 2 4 4 1 4 3 3 3 3 1 1 0
8 5 6 4 1 1 5 1 2 4 3 4 2 2 3 1 3 7 6 6 3 3 3 1 3 3 2 1 3 4 7 4 2 4 3 1 3 2 4 9 18 15 14 12 13 9 5 11 17 18 20 15 12 12 14 12 17 13 14 15 12 14 18 12 12 4 9 6 10 6 11 3 1 3 2 1 3 3 4 3 3 4 4 4 2 1 0 0
2 6 3 3 1 1 5 3 4 4 7 6 5 2 3 3 2 4 6 4 4 5 3 3 2 3 1 4 3 2 8 6 2 2 5 2 3 1 4 10 14 14 16 9 7 11 4 10 13 16 20 20 19 13 4 9 8 5 7 14 16 11 9 8 2 5 13 7 8 8 10 6 12 10 5 5 4 6 6 4 5 4 3 2 2 3 2 2
2 4 6 6 3 2 4 3 3 3 5 6 3 4 6 6 3 2 5 2 4 4 3 2 4 5 2 3 3 2 5 6 5 4 4 5 3 2 6 8 12 12 9 9 10 3 3 7 12 12 17 13 7 6 16 23 23 20 17 13 9 9 6 10 12 13 7 3 8 6 10 11 18 19 9 6 6 7 6 5 4 4 5 7 6 3 5 3
1 3 1 4 2 7 6 7 6 5 3 8 4 6 4 4 3 3 3 3 5 5 3 1 5 6 9 7 5 2 5 3 6 6 3 2 1 3 4 5 11 12 12 3 9 7 8 12 14 12 14 6 10 11 13 13 15 20 23 24 24 21 17 15 15 17 13 11 16 19 20 22 26 19 7 12 10 8 8 7 8 7 5 5 5 5 5 5
2 2 2 5 1 5 7 5 9 6 5 4 2 6 6 9 9 6 3 3 3 5 6 3 7 9 8 8 6 3 3 5 6 3 5 6 8 4 2 2 5 5 11 5 3 1 3 5 10 10 10 8 8 11 13 16 13 13 15 18 20 22 23 22 21 21 20 17 21 25 23 26 28 6 7 7 7 8 6 5 5 6 7 6 6 6 6 6
2 1 2 1 3 2 8 4 5 7 6 6 4 5 5 7 8 6 4 6 4 6 7 7 8 11 11 10 9 8 10 7 1 5 4 4 1 3 6 6 2 8 10 10 4 3 3 5 13 9 8 8 7 11 12 14 14 14 16 18 18 17 19 21 19 19 18 19 22 24 21 21 13 4 5 4 10 7 5 7 8 7 7 7 7 7 7 7
3 3 3 1 2 0 1 2 3 4 4 5 6 4 5 8 8 8 5 7 9 7 10 16 13 11 12 12 12 15 13 12 9 4 6 9 9 8 7 3 3 5 9 7 5 2 4 3 5 7 9 5 4 14 13 13 14 17 17 18 19 19 17 18 19 23 21 22 22 15 13 19 17 7 4 3 2 5 7 8 6 5 7 8 8 7 7 8
2 5 3 3 1 2 2 3 2 1 5 6 5 6 4 6 2 5 3 6 8 8 10 14 8 7 6 13 17 18 15 12 12 9 2 7 4 3 4 4 4 7 7 11 10 10 9 7 10 9 9 11 9 10 14 12 8 9 16 22 24 24 26 27 27 23 17 19 16 15 23 27 4 9 12 12 11 7 8 7 5 7 9 9 10 10 10 10
Wind_Direction
215 215 214 214 212 213 214 215 218 218 216 215 210 206 201 203 205 205 206 207 200 185 176 186 191 192 195 173 161 148 141 188 186 204 208 227 222 213 76 155 152 146 168 185 212 202 201 178 167 157 65 352 330 40 259 115 74 42 263 246 248 230 261 9 51 45 203 72 78 71 28 332 120 183 83 167 183 253 111 192 92 60 68 85 103 124 128 128
215 214 214 215 215 211 215 215 214 216 217 217 214 207 204 202 204 207 208 207 201 186 176 183 191 186 188 176 162 146 166 211 220 217 220 203 228 193 152 163 149 152 166 201 204 203 202 203 154 161 161 149 309 72 297 56 58 66 306 230 248 285 341 321 57 31 25 46 65 100 40 15 44 350 112 252 203 190 185 194 143 148 114 88 133 122 132 135
217 214 215 216 216 215 213 215 213 214 215 216 217 214 210 205 206 207 207 207 200 194 174 180 177 182 188 179 156 148 185 227 245 234 226 209 204 190 174 183 161 157 185 196 205 193 198 200 145 157 173 154 229 147 321 100 69 240 272 262 250 126 115 65 55 79 44 9 48 56 86 338 60 334 121 259 312 182 203 196 175 175 155 149 148 140 139 151
219 217 216 217 217 217 217 215 216 213 212 214 217 219 213 208 206 208 205 205 202 195 178 178 180 176 186 176 151 160 194 246 243 231 226 181 195 185 185 186 170 158 218 239 223 201 194 207 170 177 169 159 165 131 185 184 136 308 357 222 233 146 124 113 87 52 66 29 51 42 17 214 69 1 313 298 258 256 234 215 191 188 167 158 159 150 153 161
220 219 216 217 220 219 219 217 216 214 212 212 214 218 211 205 204 205 203 203 203 195 186 175 175 175 182 167 148 166 164 233 251 204 207 168 178 183 175 171 152 158 174 236 252 228 193 191 190 184 184 145 153 149 192 132 136 91 188 301 244 240 129 128 87 39 44 205 346 10 11 27 309 242 226 250 237 280 65 53 25 33 154 150 162 157 162 168
218 221 217 215 218 221 220 219 218 218 214 210 212 215 211 203 201 201 201 199 203 200 189 181 175 175 176 157 158 197 177 204 147 181 167 166 169 171 159 150 148 169 207 257 252 230 180 170 171 194 187 164 179 173 166 136 168 187 221 292 329 345 101 135 98 338 305 34 49 24 29 317 287 289 244 204 235 265 114 77 30 23 134 157 159 152 172 173
212 218 219 215 216 219 221 219 217 218 214 208 209 213 211 205 200 199 197 199 201 200 191 186 182 175 170 151 170 192 218 256 354 166 153 161 160 156 149 133 102 137 243 253 244 227 183 173 188 199 196 199 172 178 132 126 222 187 188 168 263 331 96 27 85 188 1 337 17 39 279 256 296 288 54 326 264 246 287 106 111 94 112 140 158 163 173 177
211 213 215 214 215 217 220 220 217 218 214 207 208 210 212 209 201 197 195 194 198 200 193 187 181 170 146 157 141 204 226 233 277 165 159 153 151 144 141 134 143 178 211 234 232 228 177 191 189 180 212 200 168 186 150 100 197 182 190 159 159 297 158 166 176 254 157 266 357 354 292 280 271 272 43 252 264 268 247 136 127 115 139 156 160 168 173 175
206 209 211 214 214 216 218 220 219 218 216 213 209 208 212 212 203 195 192 191 191 191 196 183 174 162 156 149 187 193 226 204 281 132 145 152 141 136 134 143 161 176 205 233 236 230 192 191 199 197 208 195 154 183 158 139 227 207 193 157 135 206 247 25 292 264 257 234 213 266 268 277 288 153 262 250 244 235 184 135 148 155 162 170 166 170 171 178
206 208 211 212 214 214 216 218 219 219 216 212 208 208 208 211 206 195 187 186 188 189 193 190 173 169 161 164 181 214 226 185 221 139 151 147 143 143 152 138 156 182 200 231 236 229 207 173 194 179 95 343 290 110 159 189 135 166 90 54 135 220 303 227 240 278 310 288 276 264 277 279 161 66 253 44 1 159 130 160 158 171 186 177 170 173 174 178
209 208 210 210 211 214 214 215 217 219 216 212 201 201 203 207 209 193 183 182 184 190 193 193 180 155 170 180 183 217 101 175 215 153 157 157 152 157 161 150 167 175 190 217 243 234 219 245 151 96 107 203 172 143 157 188 115 149 134 69 282 264 261 256 259 253 261 277 109 275 282 291 266 177 237 240 198 143 162 184 170 191 191 182 185 174 179 181
214 213 212 209 208 211 210 211 212 213 214 211 203 198 203 203 207 191 183 181 182 184 187 177 169 162 172 186 206 218 183 181 155 161 155 161 169 173 162 158 169 177 153 192 239 238 212 196 133 150 200 154 180 109 204 105 142 125 149 198 225 260 276 266 262 261 241 243 135 31 317 278 248 238 231 226 190 181 187 190 173 191 197 185 188 175 179 182
214 215 215 211 207 204 205 205 203 206 209 210 206 201 200 197 203 188 179 182 182 181 174 169 169 176 148 202 219 53 305 206 162 155 156 171 175 183 169 162 170 165 170 187 216 222 228 157 165 166 119 98 136 160 112 155 165 141 198 230 218 213 243 246 257 264 268 225 117 82 278 245 253 252 228 216 174 170 188 201 177 188 202 186 184 175 181 186
214 214 215 213 209 208 206 204 204 202 207 210 208 200 199 195 194 193 176 175 179 176 170 166 167 180 180 215 168 196 287 303 168 163 171 170 176 181 182 160 163 168 171 202 242 249 209 140 143 119 12 154 160 275 123 148 164 181 154 194 234 224 241 200 214 216 239 142 156 134 253 255 281 321 17 90 130 162 194 211 191 188 197 194 183 176 184 193
214 211 212 211 209 209 209 206 208 202 205 208 206 199 196 196 194 192 178 176 171 159 161 166 171 156 213 239 11 227 8 338 213 175 168 171 176 164 189 160 168 182 189 196 189 125 91 79 102 141 138 271 106 140 114 168 184 199 125 227 208 221 224 271 192 189 201 136 189 158 251 259 239 266 13 97 118 177 222 211 201 194 196 199 183 182 184 193
214 211 208 208 207 208 208 207 207 202 202 205 205 198 193 195 194 190 176 176 166 157 144 182 199 191 98 230 195 79 346 200 198 173 178 173 175 176 173 174 157 175 195 208 137 143 112 98 180 95 127 207 167 160 158 168 193 209 201 170 188 192 234 272 198 171 199 203 197 192 241 47 233 206 157 153 164 184 222 275 244 192 196 200 194 191 187 184
212 209 208 207 206 204 204 202 201 200 197 198 197 195 190 194 192 188 178 172 156 149 158 179 185 215 206 157 97 178 179 226 196 174 176 190 175 168 169 162 166 182 184 119 141 117 148 166 31 333 296 193 174 170 164 210 187 195 183 241 206 184 186 231 44 313 190 200 197 221 242 244 267 281 175 180 173 183 200 216 253 228 186 190 196 195 192 196
209 207 202 201 204 204 202 197 196 196 194 192 189 185 189 191 197 189 188 145 97 165 62 335 46 206 242 170 182 180 172 187 202 175 185 182 181 171 172 170 168 168 130 133 142 160 185 172 173 196 163 197 193 194 186 199 177 166 162 203 234 202 196 198 153 165 154 203 242 218 226 245 238 255 262 236 191 205 211 212 218 251 189 184 189 195 201 203
206 200 199 196 200 201 199 192 187 190 193 190 186 181 180 186 195 202 181 154 149 144 190 188 173 229 73 190 257 173 181 171 176 179 177 184 181 171 177 166 166 144 159 147 187 149 179 102 191 199 200 194 199 199 197 120 166 179 171 191 222 218 193 214 144 167 174 192 214 237 242 243 233 228 240 259 250 224 226 214 214 220 234 188 188 198 204 207
207 198 194 195 198 196 198 191 189 190 187 182 183 183 176 191 185 196 176 166 198 177 46 150 193 332 12 13 183 139 143 174 172 196 182 185 160 178 190 166 159 163 154 184 157 188 158 178 191 205 201 188 188 200 194 184 166 196 197 201 221 234 231 204 154 171 183 208 235 239 250 256 257 231 239 255 247 236 228 222 215 208 210 209 188 196 209 208
205 198 196 198 200 198 194 192 192 192 191 189 177 177 197 176 177 185 162 185 186 197 108 20 185 159 206 356 313 162 161 193 183 180 187 167 165 174 175 187 178 175 184 165 164 142 181 194 210 208 187 181 190 193 196 213 240 218 145 215 228 236 251 220 155 116 158 167 250 227 245 252 253 248 238 233 250 255 242 221 219 210 202 203 200 198 201 210
201 192 194 197 196 192 190 188 188 190 188 184 186 195 179 196 176 244 147 188 201 195 163 129 112 109 114 239 121 8 315 171 199 188 187 170 177 184 179 184 179 182 168 161 140 165 198 209 206 192 183 180 187 197 201 202 215 213 195 204 230 233 246 95 112 154 156 159 255 257 262 261 258 253 246 226 228 238 240 218 215 215 210 206 205 206 201 190
190 190 190 190 189 188 190 188 189 187 185 190 197 196 202 157 175 57 109 117 189 192 197 167 164 138 167 180 98 90 331 187 185 192 184 184 166 189 163 183 184 172 171 166 172 170 197 221 193 168 192 191 190 197 200 204 217 214 199 219 226 234 200 212 152 145 158 181 271 269 275 273 269 254 244 237 225 231 232 234 226 209 212 210 208 199 194 193
192 189 190 189 186 188 185 188 191 189 193 192 193 194 173 174 136 162 147 167 150 177 208 210 188 188 201 163 120 66 250 230 172 189 187 176 176 159 173 179 173 173 182 174 175 183 200 196 175 180 184 192 196 198 198 195 211 206 205 220 231 220 219 240 107 215 159 235 254 278 276 268 249 251 240 234 226 229 230 230 237 227 211 211 212 204 192 193
184 182 183 182 190 190 185 169 177 193 182 190 193 189 214 174 148 192 134 117 67 117 113 83 178 238 194 82 94 17 307 320 216 173 186 176 161 164 192 173 170 184 174 179 179 194 204 143 168 185 182 190 195 196 196 189 208 198 217 220 239 223 235 212 130 156 242 271 204 191 337 263 216 225 240 240 208 225 229 229 228 230 219 209 215 214 207 196
179 177 173 170 177 188 175 169 195 173 175 194 174 171 216 179 166 172 130 102 186 149 137 206 114 231 115 226 87 128 352 282 218 184 182 191 174 171 158 192 181 177 175 174 185 203 188 161 177 180 182 187 195 201 192 186 194 182 204 206 240 255 247 291 178 103 279 220 0 154 210 275 347 299 260 266 219 217 219 219 226 228 225 212 210 210 210 200
173 168 164 170 176 176 169 201 158 163 174 183 171 169 210 219 155 152 126 53 251 152 157 120 172 250 167 171 148 100 223 261 152 176 187 189 183 308 177 170 181 187 166 158 174 208 158 171 177 181 181 184 193 202 194 189 172 203 150 186 218 243 260 267 269 214 251 1 213 199 196 275 281 259 255 267 268 263 242 215 215 219 223 221 210 206 208 207
168 166 163 168 169 169 141 151 157 175 181 144 158 157 165 161 77 75 182 186 236 116 171 163 228 117 171 153 146 164 234 178 166 197 188 186 184 192 196 177 178 170 168 162 203 140 176 173 178 177 181 184 196 192 169 178 172 163 171 173 198 216 233 248 277 296 58 51 278 206 193 285 239 262 197 220 246 237 238 239 214 214 217 219 211 205 207 208
155 140 140 152 149 170 201 175 160 160 143 143 140 145 156 124 116 153 178 199 131 97 119 142 113 120 135 131 163 190 231 232 234 155 181 173 224 96 190 189 183 170 174 185 188 161 182 177 178 174 176 190 175 168 160 167 185 153 136 85 110 128 214 301 191 6 37 87 258 183 188 248 273 237 256 232 224 238 225 226 236 224 208 207 208 206 207 208
144 137 137 144 154 201 159 140 155 145 143 143 143 141 129 120 130 198 165 224 97 153 173 148 171 177 140 140 162 173 214 243 271 165 177 182 182 331 321 178 178 168 175 195 178 163 148 176 159 172 186 177 161 152 162 177 133 146 105 116 94 74 48 34 76 96 34 250 252 179 224 226 296 191 200 182 222 211 220 237 233 240 223 206 208 208 209 207
135 135 141 156 138 168 142 144 134 145 139 142 129 117 100 99 173 177 191 161 90 115 132 155 171 146 167 165 166 178 214 222 216 167 182 148 182 211 144 150 23 142 161 171 111 206 164 132 154 246 176 158 148 119 145 191 154 152 138 134 95 6 42 40 10 65 211 256 90 188 194 199 233 234 226 208 209 201 200 213 225 225 228 220 210 215 212 207
133 144 154 177 147 179 165 142 144 138 145 141 130 136 133 127 268 200 168 297 158 174 165 138 168 165 162 166 171 175 193 221 209 185 190 183 170 182 184 175 159 160 176 160 139 124 167 176 143 158 315 162 154 138 191 185 167 170 149 144 156 189 112 220 134 210 213 237 340 322 189 233 238 243 288 290 285 301 192 203 215 226 238 233 221 214 212 207
133 145 166 147 129 181 124 127 137 144 135 140 141 148 152 176 190 203 110 202 203 133 188 149 165 170 159 158 188 178 191 212 184 192 184 193 184 199 191 181 173 177 162 162 145 158 207 166 172 162 93 224 154 157 161 174 190 179 178 166 173 167 181 210 180 278 300 229 210 114 48 272 288 265 219 233 245 240 244 234 228 226 243 257 290 31 270 253
133 135 113 177 120 99 122 129 138 150 153 142 120 128 105 172 211 64 148 232 130 329 154 154 159 162 165 175 177 168 194 216 214 184 186 189 190 192 203 205 174 170 127 159 171 168 157 180 192 159 199 161 187 179 177 177 175 190 169 174 182 168 155 193 178 205 212 187 220 206 97 236 113 260 317 268 251 242 229 238 236 232 237 248 261 202 195 195
127 98 110 106 104 96 115 131 143 155 151 145 130 160 160 183 111 151 127 229 133 149 121 161 153 161 175 178 174 181 172 190 224 188 191 188 196 195 189 191 188 150 138 149 202 163 185 52 159 173 78 168 182 187 160 120 148 190 160 132 188 208 157 189 184 193 205 119 67 214 206 300 239 332 289 249 279 270 255 256 252 254 252 247 259 257 245 219
110 123 126 89 120 122 109 134 143 136 153 142 134 149 186 171 166 196 179 128 226 139 152 155 161 156 168 175 183 181 185 110 206 217 192 197 192 194 194 180 186 176 161 166 150 160 173 217 169 155 186 179 181 163 180 150 176 171 154 200 191 7 73 177 3 205 46 83 241 157 300 282 310 286 270 275 250 240 233 249 239 242 245 240 241 248 248 218
105 129 91 104 99 111 104 119 115 118 153 139 144 172 196 33 272 89 118 151 172 173 153 161 179 159 160 164 163 186 175 168 217 211 203 183 205 202 195 201 189 180 190 157 176 226 166 139 149 174 182 191 189 176 161 189 120 131 191 183 108 57 90 136 213 88 193 225 255 157 220 223 175 279 232 219 237 245 203 219 230 230 230 231 237 239 237 215
126 101 103 112 101 104 105 91 89 60 87 144 178 164 114 146 166 108 230 125 111 274 143 159 136 152 169 152 169 171 173 185 182 200 163 187 282 179 195 190 187 192 197 208 165 173 118 85 224 336 187 80 45 82 158 335 322 186 179 150 161 186 213 204 173 223 196 223 253 218 217 218 199 224 354 312 212 233 214 210 220 236 233 236 243 253 239 215
109 117 112 120 128 120 102 109 71 73 135 172 201 201 135 167 152 129 142 140 70 136 148 126 110 313 166 172 148 163 164 195 173 201 162 190 205 186 191 179 185 190 201 191 187 142 164 138 88 331 169 144 110 167 181 192 359 38 122 192 216 1 219 176 196 49 136 245 249 250 181 250 187 216 183 249 232 205 211 187 201 218 225 225 220 155 130 132
135 118 109 146 135 129 122 141 139 121 174 188 180 216 145 133 140 121 98 117 74 201 217 112 346 107 116 118 154 153 177 177 174 187 205 172 201 158 189 196 185 188 189 207 179 163 169 118 155 164 282 183 174 204 190 173 167 173 181 187 202 183 279 77 223 194 166 203 230 283 273 269 220 186 197 220 230 221 208 204 188 210 226 168 146 149 149 142
157 96 119 136 136 134 146 152 167 186 196 235 192 88 67 132 131 131 104 64 90 18 61 113 154 131 162 136 154 158 156 171 177 187 188 191 187 158 208 186 179 186 182 203 174 172 106 169 147 130 185 198 188 190 204 180 171 183 184 192 188 170 124 174 226 182 228 192 221 248 263 264 287 190 189 215 221 214 210 170 205 186 148 148 134 133 152 155
143 115 145 178 136 154 149 152 187 184 207 195 210 123 157 120 129 142 119 101 70 104 3 47 64 121 88 73 110 142 140 155 174 177 199 200 205 229 196 194 184 177 180 192 186 175 148 96 129 166 184 177 169 177 302 230 189 188 185 193 185 182 176 178 209 206 177 227 281 230 309 272 203 162 174 181 169 150 136 154 198 161 146 113 120 147 145 152
86 82 96 155 135 159 145 152 178 183 206 206 120 91 111 115 128 132 130 141 111 105 40 57 250 89 148 118 78 79 154 129 177 187 185 213 233 213 101 191 185 183 186 194 167 232 82 132 108 63 52 23 93 13 358 0 157 179 223 209 178 196 193 202 201 110 181 140 205 237 253 261 313 44 102 111 112 123 128 148 151 90 94 109 133 129 151 83
101 116 129 111 167 201 194 174 183 188 177 190 108 129 108 137 127 147 160 157 142 139 146 176 47 344 93 130 150 156 194 156 203 198 219 241 259 189 280 199 188 190 187 183 172 196 159 232 129 128 112 82 22 80 306 323 284 201 194 201 196 189 193 183 99 134 172 210 187 182 232 250 248 5 351 92 113 147 192 176 130 136 132 142 152 145 93 115
111 87 87 133 29 161 198 69 163 146 171 187 132 189 138 134 176 161 158 166 152 137 128 148 168 112 86 298 194 152 185 193 118 231 221 15 250 336 294 241 201 201 196 179 184 186 186 160 159 167 168 172 178 182 183 189 200 195 199 191 199 186 185 182 207 156 218 205 192 202 242 232 286 345 323 276 214 210 224 167 149 157 169 162 139 121 129 127
138 118 149 80 121 36 281 312 322 192 172 177 150 215 166 180 170 175 162 155 151 155 141 131 118 107 75 52 15 179 173 212 114 182 181 256 298 308 267 235 226 212 184 163 198 172 158 187 199 185 186 191 191 187 157 124 79 126 162 189 200 202 192 199 185 214 220 209 201 230 250 281 287 262 263 262 225 211 228 183 166 164 192 196 153 150 169 216
117 132 158 155 81 294 255 294 277 259 195 165 182 164 195 196 137 166 186 157 170 141 153 138 149 132 174 166 204 234 214 164 108 94 194 208 227 251 315 274 220 224 160 176 208 129 119 187 205 203 209 202 178 120 147 159 173 181 175 181 179 187 181 193 205 221 217 280 273 248 258 266 254 249 213 220 235 234 231 200 202 179 178 183 183 182 197 232
137 103 180 149 159 182 208 239 243 257 268 162 191 141 187 173 172 150 153 253 144 163 122 149 180 168 158 162 149 217 182 169 161 191 153 208 286 318 304 246 222 198 173 219 200 183 179 188 191 200 203 141 136 145 155 170 176 177 178 177 185 183 182 192 209 221 204 203 229 233 229 236 247 238 173 200 204 213 211 200 196 187 159 154 153 180 214 230
324 72 119 146 249 143 171 111 169 228 259 225 222 151 166 182 200 183 142 164 154 185 178 166 191 184 189 177 161 193 185 161 205 213 169 184 190 165 224 254 240 141 181 213 227 299 182 222 172 186 188 187 146 144 164 175 178 178 187 188 187 185 191 196 208 212 209 215 220 233 230 232 241 212 196 210 190 201 212 164 134 134 160 167 184 201 211 219
40 34 108 153 337 59 159 189 170 183 222 212 225 202 186 187 199 184 171 156 174 200 179 218 185 189 185 183 174 203 201 219 98 177 197 130 266 233 221 220 149 172 166 190 189 274 177 203 152 167 179 199 169 147 168 177 170 184 188 191 191 192 198 205 211 217 219 230 232 235 242 256 255 143 197 211 196 191 134 147 173 171 158 178 199 212 220 225
14 53 344 190 137 238 125 147 189 192 208 203 218 203 212 204 199 187 200 177 188 178 183 204 197 181 189 187 195 210 210 205 237 266 157 176 199 201 192 222 172 181 175 157 184 193 191 262 158 151 175 201 206 167 173 175 182 187 189 189 188 186 198 206 214 216 204 215 227 239 259 255 248 145 247 227 247 145 171 181 177 174 184 198 204 219 224 231
5 5 349 359 108 139 164 147 171 186 226 221 206 203 212 211 194 142 207 202 215 208 194 206 203 181 184 192 208 215 209 199 208 225 153 202 238 334 290 287 300 202 187 195 176 177 177 167 169 171 183 201 201 177 170 162 165 205 203 191 190 195 198 203 212 214 209 211 212 213 227 232 127 151 210 218 213 214 200 188 187 205 207 206 209 219 227 233